Flag for Turkey Weather past 2 weeks in Samsun, Turkey

Now
59 °F

Partly sunny.


Feels Like: 57 °F
Forecast: 49 / 77 °F
Wind: 9 mph from West

Location: Samsun / Carsamba


UV Index: 5 (Moderate)

Visibility: N/A


Pressure: 29.83 "Hg

Humidity: 82%

Dew point: 54 °F

Location of SamsunLocation

Historic Weather in Samsun

°F

Samsun temperature yesterday

Maximum temperature yesterday: 68 °F (at 12:50 PM)
Minimum temperature yesterday: 48 °F (at 6:50 AM)
Average temperature yesterday: 55 °F

Past Weeks' High & Low Weather Summary

 TemperatureHumidityPressure
High81 °F (Apr 11, 1:50 PM)100% (Apr 4, 12:50 AM)30.24 "Hg (Apr 4, 12:50 AM)
Low30 °F (Apr 4, 3:50 AM)21% (Apr 11, 1:50 PM)29.83 "Hg (Apr 10, 12:50 PM)
Average51 °F81%30.01 "Hg
* Reported Apr 2 2:50 PM — Apr 17 2:50 PM, Samsun, Weather by CustomWeather, © 2014

Note: Actual official high and low records may vary slightly from our data, if they occured in-between our weather recording intervals... More about our weather records

Advertising

Historic Weather Conditions — Data for Previous 24 hours

 ConditionsComfort  
Time TempWeatherWind HumidityBarometerVisibility
2:50 PM
Apr 17
59 °FPartly sunny.9 mph82%29.83 "HgN/A
1:50 PM59 °FPartly sunny.9 mph77%29.86 "HgN/A
12:50 PM57 °FPartly sunny.9 mph82%29.89 "HgN/A
11:50 AM59 °FPartly sunny.8 mph77%29.89 "HgN/A
10:50 AM57 °FPartly sunny.7 mph82%29.92 "HgN/A
9:50 AM57 °FPartly sunny.2 mph94%29.92 "HgN/A
8:50 AM52 °FLight fog.1 mph94%29.95 "Hg1 mi
7:50 AM50 °FFog.No wind94%29.95 "Hg0 mi
6:50 AM48 °FFog.2 mph100%29.95 "Hg0 mi
5:50 AM48 °FFog.2 mph100%29.95 "Hg0 mi
4:50 AM48 °FFog.No wind100%29.95 "Hg0 mi
3:50 AM50 °FFog.No wind94%29.95 "Hg0 mi
2:50 AM50 °FFog.2 mph94%29.95 "Hg0 mi
1:50 AM50 °FFog.No wind94%29.98 "Hg0 mi
12:50 AM50 °FFog.No wind94%29.98 "Hg0 mi
11:50 PM
Apr 16
50 °FFog.2 mph94%29.98 "Hg0 mi
10:50 PM50 °FFog.No wind94%29.98 "Hg0 mi
9:50 PM50 °FFog.1 mph94%29.98 "Hg0 mi
9:01 PM50 °FFog.No wind94%29.98 "Hg0 mi
7:50 PM52 °FFog.No wind94%29.98 "Hg2 mi
6:50 PM52 °FScattered clouds.6 mph94%29.98 "Hg5 mi
5:50 PM57 °FScattered clouds.7 mph82%29.95 "HgN/A
4:50 PM63 °FScattered clouds.6 mph73%29.95 "HgN/A
Weather by CustomWeather, © 2014

See weather overview